Location: Newark
(52.2583°N, 7.1190°W)
Time: 20:42:30
(UTC+00:00)

S-56A Canister/Altair - Pass Details

Date: 21 November 2019
Orbit: 633 x 2499 km, 38.9° (Epoch: 07 December)

Event Time Altitude Azimuth Distance (km) Brightness Sun altitude
Rises 20:25:59 0° 261° (W) 4,474 12.3 -35.6°
Reaches altitude 10° 20:30:10 10° 247° (WSW) 3,137 11.2 -36.3°
Enters shadow 20:34:17 20° 215° (SW) 2,149 9.9 -36.9°
